W0KHZ Weather Reports


time (UTC)temp
C
wind
direction
speed
KPH
gust
KPH
rain 1hr
cm
rain 24hr
cm
rain mn
cm
humidity
%
barometer
mb
20260506231051 7 291 3.2 9.7 0.00 0.00 0.00 48 1013.8
20260506230529 7 288 3.2 9.7 0.00 0.00 0.00 48 1014.0
20260506230027 7 333 3.2 9.7 0.00 0.00 0.00 48 1013.9
20260506225525 7 297 4.8 14.5 0.00 0.00 0.00 47 1014.0
20260506225024 7 308 3.2 12.9 0.00 0.00 0.00 48 1014.1
20260506224522 7 323 4.8 11.3 0.00 0.00 0.00 49 1014.0
20260506224020 7 320 3.2 12.9 0.00 0.00 0.00 48 1014.0
20260506223518 7 306 3.2 11.3 0.00 0.00 0.00 48 1014.0
20260506223016 7 300 4.8 12.9 0.00 0.00 0.00 48 1014.0
20260506222534 7 313 4.8 14.5 0.00 0.00 0.00 48 1014.0
20260506222032 7 325 6.4 22.5 0.00 0.00 0.00 48 1014.0
20260506221530 7 303 4.8 20.9 0.00 0.00 0.00 48 1014.0
20260506221048 7 312 4.8 11.3 0.00 0.00 0.00 47 1014.0
20260506220527 7 313 6.4 17.7 0.00 0.00 0.00 47 1013.9
20260506220045 7 293 4.8 14.5 0.00 0.00 0.00 48 1014.0
20260506215523 7 313 3.2 9.7 0.00 0.00 0.00 47 1013.9
20260506215042 7 320 6.4 17.7 0.00 0.00 0.00 47 1014.0
20260506214520 7 288 4.8 14.5 0.00 0.00 0.00 47 1014.0
20260506214017 7 298 3.2 6.4 0.00 0.00 0.00 47 1014.0
20260506213535 7 263 4.8 14.5 0.00 0.00 0.00 48 1014.0
20260506213114 7 308 3.2 11.3 0.00 0.00 0.00 47 1014.2
20260506212532 7 312 3.2 9.7 0.00 0.00 0.00 48 1014.0
20260506212030 7 326 4.8 9.7 0.00 0.00 0.00 47 1014.1
20260506211528 7 296 3.2 12.9 0.00 0.00 0.00 47 1014.1
20260506211046 7 314 6.4 17.7 0.00 0.00 0.00 48 1014.0
20260506210524 7 319 4.8 12.9 0.00 0.00 0.00 49 1014.1
20260506210023 7 312 4.8 12.9 0.00 0.00 0.00 49 1014.1
20260506205521 7 324 3.2 9.7 0.00 0.00 0.00 48 1014.2
20260506205019 7 311 4.8 11.3 0.00 0.00 0.00 48 1014.2
20260506204517 7 327 3.2 11.3 0.00 0.00 0.00 47 1014.4
20260506204034 7 316 4.8 16.1 0.00 0.00 0.00 48 1014.3
20260506203533 7 294 4.8 17.7 0.00 0.00 0.00 48 1014.4
20260506203031 7 319 6.4 14.5 0.00 0.00 0.00 49 1014.5
20260506202529 7 308 4.8 16.1 0.00 0.00 0.00 49 1014.4
20260506202027 7 321 4.8 16.1 0.00 0.00 0.00 49 1014.5
20260506201525 7 295 3.2 6.4 0.00 0.00 0.00 49 1014.5
20260506201023 7 263 3.2 9.7 0.00 0.00 0.00 48 1014.5
20260506200522 7 302 4.8 14.5 0.00 0.00 0.00 48 1014.6
20260506200020 7 322 4.8 12.9 0.00 0.00 0.00 49 1014.5
20260506195518 7 301 4.8 12.9 0.00 0.00 0.00 48 1014.5
20260506195035 7 297 4.8 17.7 0.00 0.00 0.00 48 1014.4
20260506194533 7 285 3.2 12.9 0.00 0.00 0.00 48 1014.5
20260506194032 7 281 3.2 11.3 0.00 0.00 0.00 48 1014.6
20260506193530 7 326 3.2 9.7 0.00 0.00 0.00 48 1014.3
20260506193028 7 344 4.8 16.1 0.00 0.00 0.00 48 1014.6
20260506192526 7 312 8.0 17.7 0.00 0.00 0.00 48 1014.4
20260506192024 7 328 4.8 14.5 0.00 0.00 0.00 48 1014.4
20260506191523 7 320 4.8 12.9 0.00 0.00 0.00 48 1014.3
20260506191041 7 316 4.8 16.1 0.00 0.00 0.00 48 1014.3
20260506190520 7 279 3.2 11.3 0.00 0.00 0.00 47 1014.3
20260506190018 7 312 6.4 24.1 0.00 0.00 0.00 46 1014.2
20260506185535 7 330 6.4 20.9 0.00 0.00 0.00 48 1014.3
20260506185033 7 317 4.8 12.9 0.00 0.00 0.00 49 1014.2
20260506184531 7 316 4.8 11.3 0.00 0.00 0.00 48 1014.3
20260506184029 7 314 4.8 12.9 0.00 0.00 0.00 48 1014.2
20260506183528 7 315 4.8 12.9 0.00 0.00 0.00 48 1014.2
20260506183026 7 325 4.8 11.3 0.00 0.00 0.00 49 1014.2
20260506182524 7 321 4.8 12.9 0.00 0.00 0.00 48 1014.0
20260506182022 7 324 4.8 14.5 0.00 0.00 0.00 48 1014.0
20260506181521 7 318 4.8 9.7 0.00 0.00 0.00 48 1014.1
20260506181019 7 309 4.8 12.9 0.00 0.00 0.00 48 1014.1
20260506180517 7 329 4.8 12.9 0.00 0.00 0.00 47 1014.1
20260506180034 7 324 3.2 12.9 0.00 0.00 0.00 48 1014.2
20260506175533 7 300 4.8 17.7 0.00 0.00 0.00 48 1014.0
20260506175031 7 329 3.2 9.7 0.00 0.00 0.00 48 1014.1
20260506174529 7 321 4.8 11.3 0.00 0.00 0.00 47 1014.2
20260506174027 7 278 4.8 11.3 0.00 0.00 0.00 47 1014.1
20260506173525 7 287 3.2 14.5 0.00 0.00 0.00 48 1014.1
20260506173024 7 309 4.8 14.5 0.00 0.00 0.00 48 1014.2
20260506172522 7 280 1.6 6.4 0.00 0.00 0.00 49 1014.2
20260506172020 7 326 4.8 11.3 0.00 0.00 0.00 48 1014.1
20260506171519 7 325 4.8 14.5 0.00 0.00 0.00 48 1014.2
20260506171017 7 317 4.8 14.5 0.00 0.00 0.00 48 1014.3
20260506170554 7 292 4.8 12.9 0.00 0.00 0.00 49 1014.3
20260506170052 7 282 4.8 12.9 0.00 0.00 0.00 48 1014.3
20260506165530 7 343 3.2 11.3 0.00 0.00 0.00 49 1014.0
20260506165029 8 321 3.2 6.4 0.00 0.00 0.00 49 1014.2
20260506164527 7 313 4.8 11.3 0.00 0.00 0.00 50 1014.1
20260506164025 7 312 4.8 16.1 0.00 0.00 0.00 51 1014.2
20260506163523 7 315 3.2 6.4 0.00 0.00 0.00 50 1014.2
20260506163021 7 324 4.8 17.7 0.00 0.00 0.00 52 1014.2
20260506162520 7 283 3.2 16.1 0.00 0.00 0.00 52 1014.3
20260506162018 7 299 1.6 4.8 0.00 0.00 0.00 52 1014.4
20260506161616 7 304 3.2 11.3 0.00 0.00 0.00 51 1014.3
20260506161033 7 281 1.6 9.7 0.00 0.00 0.00 51 1014.3
20260506160612 7 320 3.2 9.7 0.00 0.00 0.00 51 1014.4
20260506160030 7 314 4.8 14.5 0.00 0.00 0.00 50 1014.5
20260506155528 7 287 6.4 14.5 0.00 0.00 0.00 51 1014.3
20260506155026 7 321 6.4 22.5 0.00 0.00 0.00 51 1014.2
20260506154524 7 292 4.8 17.7 0.00 0.00 0.00 52 1014.0
20260506154022 7 298 3.2 9.7 0.00 0.00 0.00 52 1014.2
20260506153521 7 305 4.8 17.7 0.00 0.00 0.00 52 1014.0
20260506153019 7 312 3.2 11.3 0.00 0.00 0.00 52 1014.1
20260506152517 7 308 6.4 20.9 0.00 0.00 0.00 53 1014.0
20260506152034 7 325 4.8 16.1 0.00 0.00 0.00 55 1014.1
20260506151532 6 315 3.2 16.1 0.00 0.00 0.00 56 1014.3
20260506151030 6 313 3.2 6.4 0.00 0.00 0.00 55 1014.3
20260506150528 6 313 3.2 6.4 0.00 0.00 0.00 55 1014.5
20260506150027 6 260 4.8 16.1 0.00 0.00 0.00 54 1014.5
20260506145525 6 315 4.8 16.1 0.00 0.00 0.00 54 1014.6
20260506145023 6 310 4.8 12.9 0.00 0.00 0.00 55 1014.5
20260506144522 6 320 4.8 14.5 0.00 0.00 0.00 55 1014.5
20260506144020 6 289 6.4 20.9 0.00 0.00 0.00 55 1014.5
20260506143518 6 319 3.2 11.3 0.00 0.00 0.00 55 1014.4
20260506143015 6 345 3.2 6.4 0.00 0.00 0.00 55 1014.4
20260506142533 6 325 6.4 22.5 0.00 0.00 0.00 55 1014.4
20260506142032 6 301 8.0 25.7 0.00 0.00 0.00 53 1014.2
20260506141530 6 316 8.0 29.0 0.00 0.00 0.00 54 1014.2
20260506141048 6 319 4.8 17.7 0.00 0.00 0.00 56 1014.1
20260506140546 6 327 3.2 9.7 0.00 0.00 0.00 57 1014.1
20260506140024 6 327 4.8 12.9 0.00 0.00 0.00 57 1013.9
20260506135523 6 321 3.2 12.9 0.00 0.00 0.00 57 1013.8
20260506135021 6 328 4.8 12.9 0.00 0.00 0.00 59 1013.7
20260506134520 5 331 4.8 14.5 0.00 0.00 0.00 59 1013.7
20260506134037 5 327 4.8 16.1 0.00 0.00 0.00 61 1013.7
20260506133534 5 331 1.6 6.4 0.00 0.00 0.00 64 1013.7
20260506133113 5 337 1.6 4.8 0.00 0.00 0.00 65 1013.7
20260506132531 4 303 1.6 6.4 0.00 0.00 0.00 68 1013.6
20260506132109 4 354 1.6 3.2 0.00 0.00 0.00 70 1013.7
20260506131527 3 326 1.6 3.2 0.00 0.00 0.00 71 1013.8
20260506131025 3 333 1.6 9.7 0.00 0.00 0.00 72 1013.8
20260506130544 2 303 1.6 6.4 0.00 0.00 0.00 74 1013.7
20260506130022 2 303 0.0 3.2 0.00 0.00 0.00 75 1013.5
20260506125520 1 298 1.6 6.4 0.00 0.00 0.00 77 1013.4
20260506125018 1 306 1.6 4.8 0.00 0.00 0.00 78 1013.3
20260506124515 0 306 1.6 4.8 0.00 0.00 0.00 79 1013.3
20260506124033 0 0.0 0.0 0.00 0.00 0.00 80 1013.3
20260506123532 0 0.0 0.0 0.00 0.00 0.00 80 1013.4
20260506123030 0 0.0 0.0 0.00 0.00 0.00 81 1013.3
20260506122528 0 0.0 0.0 0.00 0.00 0.00 81 1013.3
20260506122107 0 0.0 0.0 0.00 0.00 0.00 81 1013.1
20260506121525 0 0.0 0.0 0.00 0.00 0.00 81 1013.0
20260506121144 0 0.0 0.0 0.00 0.00 0.00 82 1013.0
20260506120521 -1 0.0 0.0 0.00 0.00 0.00 82 1013.0
20260506120020 -1 0.0 0.0 0.00 0.00 0.00 82 1012.8
20260506115518 -1 0.0 0.0 0.00 0.00 0.00 82 1012.7
20260506115035 -1 0.0 0.0 0.00 0.00 0.00 81 1012.8
20260506114533 -1 0.0 0.0 0.00 0.00 0.00 81 1012.9
20260506114031 -1 0.0 0.0 0.00 0.00 0.00 81 1013.0
20260506113529 -1 0.0 0.0 0.00 0.00 0.00 81 1012.9
20260506113028 -1 0.0 0.0 0.00 0.00 0.00 81 1012.9
20260506112526 0 0.0 0.0 0.00 0.00 0.00 81 1012.9
20260506112024 0 0.0 0.0 0.00 0.00 0.00 81 1012.7
20260506111522 0 0.0 0.0 0.00 0.00 0.00 81 1012.6
20260506111021 0 0.0 0.0 0.00 0.00 0.00 80 1012.5
20260506110519 0 0.0 0.0 0.00 0.00 0.00 80 1012.4
20260506110037 0 0.0 0.0 0.00 0.00 0.00 80 1012.4
20260506105614 0 0.0 0.0 0.00 0.00 0.00 80 1012.3
20260506105032 0 0.0 0.0 0.00 0.00 0.00 80 1012.2
20260506104531 0 0.0 0.0 0.00 0.00 0.00 80 1012.1
20260506104029 0 0.0 0.0 0.00 0.00 0.00 79 1012.1
20260506103547 0 0.0 0.0 0.00 0.00 0.00 79 1012.0
20260506103025 0 0.0 0.0 0.00 0.00 0.00 79 1012.1
20260506102524 0 0.0 0.0 0.00 0.00 0.00 79 1012.2
20260506102022 0 0.0 0.0 0.00 0.00 0.00 79 1012.2
20260506101521 0 0.0 0.0 0.00 0.00 0.00 79 1012.2
20260506101019 0 0.0 0.0 0.00 0.00 0.00 79 1012.2
20260506100516 0 0.0 0.0 0.00 0.00 0.00 78 1012.1
20260506100034 0 0.0 0.0 0.00 0.00 0.00 79 1012.0
20260506095532 0 0.0 0.0 0.00 0.00 0.00 79 1012.0
20260506095031 0 0.0 0.0 0.00 0.00 0.00 80 1011.9
20260506094529 0 0.0 0.0 0.00 0.00 0.00 79 1011.9
20260506094027 0 0.0 0.0 0.00 0.00 0.00 79 1011.8
20260506093525 0 0.0 0.0 0.00 0.00 0.00 78 1011.7
20260506093023 0 0.0 0.0 0.00 0.00 0.00 78 1011.6
20260506092522 0 0.0 0.0 0.00 0.00 0.00 78 1011.5
20260506092020 0 0.0 0.0 0.00 0.00 0.00 78 1011.5
20260506091518 0 0.0 0.0 0.00 0.00 0.00 79 1011.7
20260506091015 0 0.0 0.0 0.00 0.00 0.00 79 1011.6
20260506090534 0 0.0 0.0 0.00 0.00 0.00 79 1011.5
20260506090032 0 0.0 0.0 0.00 0.00 0.00 78 1011.5
20260506085530 0 0.0 0.0 0.00 0.00 0.00 78 1011.5
20260506085028 0 0.0 0.0 0.00 0.00 0.00 77 1011.4
20260506084527 0 0.0 0.0 0.00 0.00 0.00 77 1011.4
20260506084025 0 0.0 0.0 0.00 0.00 0.00 77 1011.2
20260506083523 0 0.0 0.0 0.00 0.00 0.00 76 1011.2
20260506083021 0 0.0 0.0 0.00 0.00 0.00 76 1011.1
20260506082520 0 0.0 0.0 0.00 0.00 0.00 76 1011.1
20260506082018 0 0.0 0.0 0.00 0.00 0.00 75 1011.2
20260506081535 1 0.0 0.0 0.00 0.00 0.00 76 1011.2
20260506081033 1 0.0 0.0 0.00 0.00 0.00 75 1011.3
20260506080531 1 0.0 0.0 0.00 0.00 0.00 75 1011.2
20260506073019 1 0.0 0.0 0.00 0.00 0.00 73 1011.1
20260506072517 1 0.0 0.0 0.00 0.00 0.00 73 1010.9
20260506072034 1 0.0 0.0 0.00 0.00 0.00 74 1010.9
20260506071533 1 0.0 0.0 0.00 0.00 0.00 74 1010.7
20260506071031 1 0.0 0.0 0.00 0.00 0.00 74 1010.6
20260506070529 1 0.0 0.0 0.00 0.00 0.00 74 1010.6
20260506062032 1 0.0 0.0 0.00 0.00 0.00 74 1010.3
20260506061530 1 0.0 0.0 0.00 0.00 0.00 75 1010.4
20260506061028 1 0.0 0.0 0.00 0.00 0.00 74 1010.5
20260506060527 2 0.0 0.0 0.00 0.00 0.00 73 1010.4
20260506051026 2 0.0 0.0 0.00 0.00 0.00 72 1010.1
20260506050524 2 0.0 0.0 0.00 0.00 0.00 72 1010.1
20260506045040 3 0.0 0.0 0.00 0.00 0.00 69 1009.9
20260506044517 3 300 0.0 3.2 0.00 0.00 0.00 70 1009.9
20260506044034 3 0.0 0.0 0.00 0.00 0.00 70 1009.9
20260506043532 3 0.0 0.0 0.00 0.00 0.00 69 1009.9
20260506043031 3 0.0 0.0 0.00 0.00 0.00 68 1010.0
20260506042529 3 0.0 0.0 0.00 0.00 0.00 69 1009.9
20260506042027 3 299 0.0 1.6 0.00 0.00 0.00 69 1009.9
20260506041525 3 0.0 0.0 0.00 0.00 0.00 69 1009.9
20260506041104 3 0.0 0.0 0.00 0.00 0.00 67 1009.8
20260506040522 4 0.0 0.0 0.00 0.00 0.00 66 1009.9
20260506040020 4 0.0 0.0 0.00 0.00 0.00 67 1009.9
20260506035519 4 300 0.0 1.6 0.00 0.00 0.00 66 1009.9
20260506035016 5 299 0.0 3.2 0.00 0.00 0.00 66 1009.9
20260506034554 5 0.0 0.0 0.00 0.00 0.00 65 1009.8
20260506034032 5 0.0 0.0 0.00 0.00 0.00 61 1009.8
20260506033531 5 0.0 0.0 0.00 0.00 0.00 61 1009.7
20260506033028 5 0.0 0.0 0.00 0.00 0.00 62 1009.7
20260506032527 5 0.0 0.0 0.00 0.00 0.00 63 1009.7
20260506032025 6 292 0.0 1.6 0.00 0.00 0.00 62 1009.7
20260506031523 6 0.0 0.0 0.00 0.00 0.00 61 1009.7
20260506031021 6 292 0.0 1.6 0.00 0.00 0.00 61 1009.8
20260506030519 6 293 0.0 1.6 0.00 0.00 0.00 60 1009.7
20260506030018 6 293 0.0 1.6 0.00 0.00 0.00 61 1009.7
20260506025535 6 292 0.0 1.6 0.00 0.00 0.00 61 1009.7
20260506025052 6 292 0.0 1.6 0.00 0.00 0.00 58 1009.6
20260506024530 6 292 0.0 1.6 0.00 0.00 0.00 59 1009.6
20260506024028 6 0.0 0.0 0.00 0.00 0.00 58 1009.5
20260506023526 6 0.0 0.0 0.00 0.00 0.00 58 1009.5
20260506023025 6 292 0.0 1.6 0.00 0.00 0.00 56 1009.4
20260506022522 6 292 0.0 1.6 0.00 0.00 0.00 55 1009.3
20260506022021 6 0.0 0.0 0.00 0.00 0.00 55 1009.3
20260506021519 6 0.0 0.0 0.00 0.00 0.00 53 1009.2
20260506021017 7 0.0 0.0 0.00 0.00 0.00 53 1009.2
20260506020554 7 0.0 0.0 0.00 0.00 0.00 52 1009.1
20260506020032 7 0.0 0.0 0.00 0.00 0.00 51 1009.0
20260506015550 7 0.0 0.0 0.00 0.00 0.00 51 1009.1
20260506015028 7 0.0 0.0 0.00 0.00 0.00 49 1008.8
20260506014526 7 0.0 0.0 0.00 0.00 0.00 49 1008.8
20260506014044 7 0.0 0.0 0.00 0.00 0.00 47 1008.9
20260506013523 8 0.0 0.0 0.00 0.00 0.00 46 1008.9
20260506013021 8 292 0.0 3.2 0.00 0.00 0.00 45 1008.8
20260506012519 8 292 0.0 9.7 0.00 0.00 0.00 44 1008.8
20260506012017 8 306 0.0 1.6 0.00 0.00 0.00 43 1008.8
20260506011534 8 304 0.0 3.2 0.00 0.00 0.00 43 1008.6
20260506011032 8 297 0.0 1.6 0.00 0.00 0.00 43 1008.7
20260506010530 9 297 0.0 3.2 0.00 0.00 0.00 42 1008.7
20260506010028 9 298 0.0 3.2 0.00 0.00 0.00 42 1008.5
20260506005546 9 308 1.6 4.8 0.00 0.00 0.00 41 1008.5
20260506005024 10 300 3.2 6.4 0.00 0.00 0.00 41 1008.5
20260506004522 10 304 1.6 9.7 0.00 0.00 0.00 41 1008.4
20260506004020 10 320 1.6 3.2 0.00 0.00 0.00 40 1008.4
20260506003518 10 319 1.6 4.8 0.00 0.00 0.00 40 1008.4
20260506003016 10 302 4.8 12.9 0.00 0.00 0.00 41 1008.4
20260506002533 10 279 3.2 9.7 0.00 0.00 0.00 40 1008.3
20260506002051 10 295 1.6 9.7 0.00 0.00 0.00 40 1008.2
20260506001529 10 293 0.0 6.4 0.00 0.00 0.00 40 1008.2
20260506001027 10 302 0.0 1.6 0.00 0.00 0.00 40 1008.2
20260506000525 10 302 1.6 4.8 0.00 0.00 0.00 40 1008.2
20260506000043 10 300 0.0 1.6 0.00 0.00 0.00 39 1008.1
20260505235542 10 296 3.2 9.7 0.00 0.00 0.00 39 1008.1
20260505235020 10 291 1.6 4.8 0.00 0.00 0.00 38 1008.2
20260505234518 10 290 1.6 9.7 0.00 0.00 0.00 38 1008.2
20260505234035 10 311 4.8 17.7 0.00 0.00 0.00 38 1008.2
20260505233533 10 282 3.2 9.7 0.00 0.00 0.00 38 1008.1
20260505233031 10 289 3.2 9.7 0.00 0.00 0.00 38 1008.1
20260505232549 10 316 1.6 4.8 0.00 0.00 0.00 38 1008.1
20260505232028 10 308 3.2 9.7 0.00 0.00 0.00 37 1008.2
20260505231526 10 305 3.2 12.9 0.00 0.00 0.00 38 1008.2